Regional Weather Roundup
Issued by NWS

Home | Current Version | Previous Version | Graphics & Text | Print | Product List | Glossary On
Versions: 1 2 3 4 5 6 7 8 9 10 11 12 13 14 15 16 17 18 19 20 21 22 23 24 25 26 27 28 29 30 31 32 33 34 35 36 37 38 39 40 41 42 43 44 45 46 47 48 49 50
000
ASUS43 KLMK 280110
RWRKY
KENTUCKY REGIONAL WEATHER ROUNDUP
NATIONAL WEATHER SERVICE LOUISVILLE KY
900 PM EDT THU AUG 27 2015

NOTE "FAIR" INDICATES FEW OR NO CLOUDS BELOW 12,000 FEET
WITH NO SIGNIFICANT WEATHER AND/OR OBSTRUCTIONS TO VISIBILITY.

KYZ001>023-026-027-061>063-070>075-280200-
WESTERN AND SOUTH CENTRAL KENTUCKY

CITY           SKY/WX    TMP DP  RH WIND       PRES   REMARKS
PADUCAH        CLEAR     67  60  78 CALM      30.08R
HENDERSON      CLEAR     68  61  77 CALM      30.08S
OWENSBORO      CLEAR     73  58  59 CALM      30.10R
HOPKINSVILLE   CLEAR     68  58  70 NE6       30.08R
BOWLING GREEN  PTCLDY    70  57  63 NE6       30.10R
GLASGOW        CLEAR     67  56  67 N3        30.11S
$$

KYZ024-025-028>034-038-045-046-053-280200-
NORTH CENTRAL KENTUCKY

CITY           SKY/WX    TMP DP  RH WIND       PRES   REMARKS
LOUISVILLE/SDF PTCLDY    73  56  54 E8        30.12R
LOUISVILLE/LOU CLEAR     73  55  53 E5        30.13R
FORT KNOX      PTCLDY    69  58  68 E5        30.11R
$$

KYZ035>037-039>044-047>052-055>060-089>105-280200-
NORTHEAST KENTUCKY

CITY           SKY/WX    TMP DP  RH WIND       PRES   REMARKS
LEXINGTON      CLEAR     66  55  67 NE6       30.15S
COVINGTON      PTCLDY    69  55  60 CALM      30.15R
FRANKFORT      CLEAR     67  56  67 E5        30.13S
$$

KYZ054-064>069-076>088-106>120-280200-
SOUTHEAST KENTUCKY

CITY           SKY/WX    TMP DP  RH WIND       PRES   REMARKS
JACKSON        CLEAR     65  55  70 CALM      30.16R
LONDON         CLEAR     69  54  58 NE5       30.14R
SOMERSET       CLEAR     68  55  64 NE5       30.14R
MIDDLESBORO    CLEAR     69  63  80 CALM      30.13R
MONTICELLO     CLEAR     65  59  81 CALM      30.15R
$$



USA.gov is the U.S. government's official web portal to all federal, state and local government web resources and services.